Provincetown, Massachusetts, United States (02657)
Lat: 42.06N, Lon: 70.18W
Wx Zone: MAZ022
Local Info
Past Weather Observations for Today

NOTE: This archive is for the closest National Weather Service station to Provincetown. Information may differ from the station used for current weather conditions.

Click here for Long-term Archive

Time Weather Temperature Dewpoint Humidity Pressure Winds Precip Visibility
18:35
Overcast
61°F / 16°C 55°F / 13°C 83% 30.01 in
(1016 mb)
NE 10.4 mph
(NE 17 kph)
- 10SM
18:15
Overcast
61°F / 16°C 55°F / 13°C 83% 30.01 in
(1016 mb)
NE 12.7 mph
(NE 20 kph)
- 10SM
17:55
Overcast
61°F / 16°C 55°F / 13°C 83% 30.01 in
(1016 mb)
NNE 10.4 mph
(NNE 17 kph)
- 10SM
17:35
Overcast
61°F / 16°C 55°F / 13°C 83% 30.01 in
(1016 mb)
NE 15 mph
(NE 24 kph)
- 10SM
17:15
Overcast
61°F / 16°C 57°F / 14°C 88% 30.01 in
(1016 mb)
NE 15 mph
(NE 24 kph)
- 10SM
16:55
Overcast
59°F / 15°C 57°F / 14°C 94% 30.01 in
(1016 mb)
NE 13.8 mph
(NE 22 kph)
- 10SM
16:35
Overcast
59°F / 15°C 55°F / 13°C 88% 29.98 in
(1015 mb)
NE 13.8 mph
(NE 22 kph)
- 10SM
16:15
Overcast
59°F / 15°C 55°F / 13°C 88% 29.98 in
(1015 mb)
NE 16.1 mph
(NE 26 kph)
- 10SM
15:55
Overcast
59°F / 15°C 55°F / 13°C 88% 29.98 in
(1015 mb)
NE 15 mph
(NE 24 kph)
- 10SM
15:35
Overcast
59°F / 15°C 55°F / 13°C 88% 29.98 in
(1015 mb)
NE 15 mph
(NE 24 kph)
- 10SM
15:15
Overcast
59°F / 15°C 55°F / 13°C 88% 29.98 in
(1015 mb)
NE 17.3 mph
(NE 28 kph)
- 10SM
14:55
Overcast
59°F / 15°C 55°F / 13°C 88% 29.98 in
(1015 mb)
NE 13.8 mph
(NE 22 kph)
- 10SM
14:35
Overcast
59°F / 15°C 55°F / 13°C 88% 29.98 in
(1015 mb)
NNE 11.5 mph
(NNE 19 kph)
- 9SM
14:15
Overcast
59°F / 15°C 55°F / 13°C 88% 29.98 in
(1015 mb)
NNE 13.8 mph
(NNE 22 kph)
- 9SM
13:55
Overcast
59°F / 15°C 55°F / 13°C 88% 29.98 in
(1015 mb)
NNE 13.8 mph
(NNE 22 kph)
- 10SM
13:35
Overcast
59°F / 15°C 55°F / 13°C 88% 30.01 in
(1016 mb)
NNE 13.8 mph
(NNE 22 kph)
- 7SM
13:15
Overcast
59°F / 15°C 57°F / 14°C 94% 30.01 in
(1016 mb)
NE 11.5 mph
(NE 19 kph)
- 9SM
12:55
Overcast
59°F / 15°C 57°F / 14°C 94% 30.01 in
(1016 mb)
NNE 11.5 mph
(NNE 19 kph)
- 10SM
12:35
Overcast
59°F / 15°C 57°F / 14°C 94% 30.01 in
(1016 mb)
NNE 10.4 mph
(NNE 17 kph)
- 10SM
12:15
Overcast
59°F / 15°C 55°F / 13°C 88% 30.01 in
(1016 mb)
NNE 10.4 mph
(NNE 17 kph)
- 9SM
11:55
Overcast
59°F / 15°C 57°F / 14°C 94% 30.01 in
(1016 mb)
NE 12.7 mph
(NE 20 kph)
- 9SM
11:35
Overcast
59°F / 15°C 57°F / 14°C 94% 30.01 in
(1016 mb)
NE 12.7 mph
(NE 20 kph)
- 9SM
11:15
Overcast
59°F / 15°C 57°F / 14°C 94% 30.01 in
(1016 mb)
NE 13.8 mph
(NE 22 kph)
- 8SM
10:55
Overcast
59°F / 15°C 55°F / 13°C 88% 30.04 in
(1017 mb)
NE 10.4 mph
(NE 17 kph)
- 7SM
10:35
Overcast
59°F / 15°C 55°F / 13°C 88% 30.04 in
(1017 mb)
NE 11.5 mph
(NE 19 kph)
- 6SM
10:15
Overcast
59°F / 15°C 57°F / 14°C 94% 30.04 in
(1017 mb)
NNE 12.7 mph
(NNE 20 kph)
- 3SM
09:55
Overcast
59°F / 15°C 57°F / 14°C 94% 30.01 in
(1016 mb)
NNE 13.8 mph
(NNE 22 kph)
- 1 3/4SM
09:35
Overcast
59°F / 15°C 57°F / 14°C 94% 30.04 in
(1017 mb)
NNE 12.7 mph
(NNE 20 kph)
- 1 1/2SM
09:15
Overcast
59°F / 15°C 57°F / 14°C 94% 30.04 in
(1017 mb)
NNE 12.7 mph
(NNE 20 kph)
- 1 1/4SM
08:55
Overcast
59°F / 15°C 55°F / 13°C 88% 30.04 in
(1017 mb)
NNE 13.8 mph
(NNE 22 kph)
- 1 1/4SM
08:35
Overcast
57°F / 14°C 55°F / 13°C 94% 30.01 in
(1016 mb)
NNE 13.8 mph
(NNE 22 kph)
- 1SM
08:15
Overcast
59°F / 15°C 57°F / 14°C 94% 30.04 in
(1017 mb)
NNE 13.8 mph
(NNE 22 kph)
- 1 1/4SM
07:55
Overcast
59°F / 15°C 57°F / 14°C 94% 30.04 in
(1017 mb)
N 9.2 mph
(N 15 kph)
- 1 1/4SM
07:35
Overcast
59°F / 15°C 55°F / 13°C 88% 30.04 in
(1017 mb)
N 11.5 mph
(N 19 kph)
- 1 1/2SM
07:15
Overcast
59°F / 15°C 55°F / 13°C 88% 30.04 in
(1017 mb)
N 11.5 mph
(N 19 kph)
- 1 1/2SM
06:55
Overcast
59°F / 15°C 57°F / 14°C 94% 30.01 in
(1016 mb)
N 11.5 mph
(N 19 kph)
- 1 3/4SM
06:35
Overcast
59°F / 15°C 57°F / 14°C 94% 30.01 in
(1016 mb)
N 9.2 mph
(N 15 kph)
- 1 1/4SM
06:15
Overcast
59°F / 15°C 57°F / 14°C 94% 30.01 in
(1016 mb)
N 12.7 mph
(N 20 kph)
- 1SM
05:55
Overcast
61°F / 16°C 57°F / 14°C 88% 30.01 in
(1016 mb)
N 13.8 mph
(N 22 kph)
- 3/4SM
05:35
Overcast
61°F / 16°C 57°F / 14°C 88% 30.01 in
(1016 mb)
N 6.9 mph
(N 11 kph)
- 1 3/4SM
05:15
Overcast
61°F / 16°C 57°F / 14°C 88% 29.98 in
(1015 mb)
N 11.5 mph
(N 19 kph)
- 2 1/2SM
04:55
Overcast
61°F / 16°C 57°F / 14°C 88% 29.98 in
(1015 mb)
N 12.7 mph
(N 20 kph)
- 2 1/2SM
04:35
Overcast
61°F / 16°C 57°F / 14°C 88% 29.98 in
(1015 mb)
N 12.7 mph
(N 20 kph)
- 2SM
04:15
Overcast
61°F / 16°C 57°F / 14°C 88% 29.98 in
(1015 mb)
N 12.7 mph
(N 20 kph)
- 2SM
03:55
Overcast
61°F / 16°C 57°F / 14°C 88% 29.98 in
(1015 mb)
N 11.5 mph
(N 19 kph)
- 2SM
03:35
Overcast
61°F / 16°C 57°F / 14°C 88% 29.98 in
(1015 mb)
N 11.5 mph
(N 19 kph)
- 1 3/4SM
03:15
Overcast
61°F / 16°C 57°F / 14°C 88% 29.98 in
(1015 mb)
N 9.2 mph
(N 15 kph)
- 1 1/4SM
02:55
Overcast
61°F / 16°C 57°F / 14°C 88% 29.98 in
(1015 mb)
N 6.9 mph
(N 11 kph)
- 2SM
02:35
Overcast
61°F / 16°C 57°F / 14°C 88% 29.98 in
(1015 mb)
N 9.2 mph
(N 15 kph)
- 2 1/2SM
02:15
Overcast
61°F / 16°C 57°F / 14°C 88% 29.98 in
(1015 mb)
N 8.1 mph
(N 13 kph)
- 2SM
01:55
Overcast
61°F / 16°C 57°F / 14°C 88% 29.98 in
(1015 mb)
N 10.4 mph
(N 17 kph)
- 1 1/2SM
01:35
Overcast
61°F / 16°C 57°F / 14°C 88% 29.98 in
(1015 mb)
NNW 10.4 mph
(NNW 17 kph)
- 1 1/2SM
01:15
Overcast
61°F / 16°C 57°F / 14°C 88% 29.98 in
(1015 mb)
NNW 10.4 mph
(NNW 17 kph)
- 1 1/2SM
00:55
Overcast
61°F / 16°C 57°F / 14°C 88% 30.01 in
(1016 mb)
NNW 9.2 mph
(NNW 15 kph)
- 2SM
00:35
Overcast
61°F / 16°C 57°F / 14°C 88% 29.98 in
(1015 mb)
NNW 9.2 mph
(NNW 15 kph)
- 2 1/2SM
00:15
Overcast
61°F / 16°C 57°F / 14°C 88% 29.98 in
(1015 mb)
N 9.2 mph
(N 15 kph)
- 1 3/4SM
Time Weather Temperature Dewpoint Humidity Pressure Winds Precip Visibility


Weather for websites

WeatherForYou.com, LLC is not responsible for any damages or problems caused by this service. Current weather conditions are obtained from the closest station including government and personal stations which may have varying degrees of accuracy. Weather forecasts are derived from the NOAA NDFD. Like all things, this site belongs to Jesus Christ... He just trusts me to maintain it. If you have any questions or comments email webmaster@weatherforyou.com

Copyright © 2014, WeatherForYou.com LLC. All rights reserved.